www.pogodaiklimat.ru

Погода и климат >> Архив погоды >> Россия >> Красноярский край >> Вельмо


ПОГОДА в Вельмо

  • Прогноз погоды в Вельмо
  • Монитор погоды в Вельмо

АРХИВ ПОГОДЫ в Вельмо

Время (UTC), дата Ветер
(напр.,м/с)
 
Видим.   Явления Облачность Т
(С)
Тd
(С)
f
(%)
Тe
(С)
Тes
(С)
Комфортность P
(гПа)
Po
(гПа)
Тmin
(С)
Tmax
(С)
R
(мм)
R24
(мм)
S
(см)
15 17.04 ЮЗ 5-10
{10}
н/о 10/8 1000 м
[Cb cap As trans]
-0.6 -8.6 55 -6 -6 1003.3 988.1
18 17.04 С 1
{10}
н/о 10/4 1000 м
[Cb cap As trans]
-4.3 -9.0 70 -6 -6 1003.5 988.1
21 17.04 СЗ 1 н/о 10/0 2000 м
[As op]
-4.2 -8.0 75 -6 -6 1000.5 985.2
00 18.04 штиль 0 50 км 10/0 2000 м
[Ac As]
-5.5 -8.5 79 -6 -6 997.3 981.9 -5.7 75
03 18.04 ЮВ 4 50 км 10/0 2000 м
[As trans]
+0.9 -5.9 60 -4 -2 994.8 979.9
06 18.04 В 4
{10}
4000 м ливневой снег {метель} 10/8 1000 м
[Cb cap As op]
-0.7 -2.2 90 -6 -6 991.4 976.4
09 18.04 В 4 3500 м ливневой снег {метель} 10/10 1000 м
[Cb cap]
-0.8 -1.8 93 -7 -7 988.4 973.4
12 18.04 СВ 4 10 км слаб. ливневой снег {метель} 10/10 1000 м
[Cb cap]
+0.8 0.0 94 -5 -5 986.1 971.3 +1.1 3
15 18.04 С 4 н/о {ливн. осадки} 10/10 1000 м
[Cb cap]
+1.0 -2.5 77 -4 -4 986.0 971.2
18 18.04 З 4 н/о слаб. ливневой снег 10/10 600 м
[Cb cap]
+0.5 -0.6 92 -5 -5 987.9 973.0
21 18.04 З 5
{12}
н/о слаб. ливневой снег {метель} 10/10 600 м
[Cb cap]
-1.2 -2.1 94 -8 -8 992.0 977.0
00 19.04 З 7-11
{14}
20 км метель {ливн. осадки} 9/8 1000 м
[Cb cap Ci fib]
-3.6 -6.1 83 -12 -11 998.7 983.4 -3.6 1 79
03 19.04 СЗ 6-12
{15}
10 км слаб. ливневой снег {метель} 9/8 1000 м
[Cb cap Ci fib]
-6.6 -10.3 75 -15 -14 1004.2 988.7 -6.6
06 19.04 З 7-11
{14}
10 км слаб. ливневой снег {метель} 10/10 1000 м
[Cb cap]
-6.5 -10.1 76 -15 -15 1007.2 991.7
09 19.04 З 8-15
{16}
20 км метель {ливн. осадки} 8/6 1000 м
[Cb calv Ci fib]
-3.5 -12.5 50 -11 -11 1010.6 995.1
12 19.04 З 5-10
{15}
20 км метель {ливн. осадки} 8/6 1000 м
[Cb calv Ci fib]
-3.7 -14.6 43 -10 -10 1012.9 997.4 -3.5 0.2
15 19.04 ЮЗ 2
{13}
н/о {метель} 10/0
[Cs]
-8.1 -16.8 50 -12 -12 1014.7 998.9
18 19.04 С 2 н/о {метель} 10/0 2000 м
[Ac trans Cs]
-13.0 -15.7 80 -18 -18 1015.1 999.0
21 19.04 штиль 0 н/о слаб. снег 10/0 2000 м
[As op]
-11.7 -13.7 85 -12 -12 1013.0 997.0
00 20.04 штиль 0 10 км слаб. снег 10/0 2000 м
[As op]
-10.0 -10.6 95 -10 -10 1010.6 994.7 -13.4 1 80
03 20.04 штиль 0 3800 м снег 10/0 2000 м
[As op]
-5.6 -7.0 90 -7 -5 1008.5 992.9
06 20.04 штиль 0 10 км слаб. снег 10/0 2000 м
[As op]
-1.1 -3.9 81 -2 +1 1006.7 991.5
09 20.04 В 1 10 км слаб. ливневой снег 10/8 1000 м
[Cb cap As op]
+0.7 -1.3 86 -1 -1 1005.7 990.6
12 20.04 В 1
{10}
10 км слаб. ливневой снег 10/8 1000 м
[Cb cap As op]
+0.6 -0.2 94 -1 -1 1005.7 990.6 +2.7 5
15 20.04 З 1 н/о слаб. ливневой снег 10/10 1000 м
[Cb cap]
-1.2 -1.5 98 -4 -4 1005.3 990.1
18 20.04 СВ 1 н/о {ливн. осадки} 10/6 1000 м
[Cb cap As trans]
-2.5 -3.1 96 -5 -5 1004.0 988.7
21 20.04 СЗ 1 н/о слаб. ливневой снег 10/8 1000 м
[Cb cap As op]
-2.0 -2.6 96 -4 -4 1002.6 987.4
00 21.04 З 2 н/о в посл. час ливневой снег 10/4 1000 м
[Cb cap As op]
-5.0 -7.1 85 -9 -9 1003.1 987.8 -5.0 2 86
03 21.04 З 4 20 км {ливн. осадки} 10/10 1000 м
[Cb cap]
-4.6 -9.8 67 -11 -11 1004.1 988.7 -5.6
06 21.04 З 3 20 км {ливн. осадки} 8/8 1000 м
[Cb calv]
-2.5 -10.8 53 -7 -5 1004.7 989.4
09 21.04 З 5
{10}
10 км слаб. ливневой снег {метель} 10/10 1000 м
[Cb cap]
-2.9 -11.0 54 -9 -9 1006.4 991.1
12 21.04 З 3
{12}
20 км в посл. час ливневой снег {метель} 10/10 1000 м
[Cb cap]
-4.8 -8.8 74 -10 -10 1008.1 992.6 -2.1 0.4
15 21.04 З 3 н/о в посл. час ливневой снег 9/6 1000 м
[Cb cap Ci fib]
-7.0 -9.1 85 -13 -13 1009.5 993.9
18 21.04 З 3 н/о слаб. ливневой снег 10/10 1000 м
[Cb cap]
-8.2 -9.6 90 -14 -14 1011.1 995.4
21 21.04 З 3 н/о {ливн. осадки, метель} 10/8 1000 м
[Cb cap As trans]
-8.8 -9.9 92 -15 -15 1012.6 996.8
00 22.04 ЮЗ 2 50 км {ливн. осадки, метель} 9/0
[Ci fib]
-10.1 -12.9 80 -15 -14 1015.6 999.7 -11.1 1 87
03 22.04 З 4 50 км позёмок 3/0
[Ci fib]
-4.2 -13.2 49 -10 -5 1017.4 1001.8
06 22.04 З 4
{11}
50 км позёмок 1/0
[Ci fib]
-0.4 -13.4 37 -5 +2 1017.9 1002.5
09 22.04 З 4
{11}
50 км {метель} 8/0 2000 м
[Ac trans Ci fib]
+1.8 -11.1 38 -2 0 1018.3 1003.0
12 22.04 З 3
{10}
50 км {метель} 10/3 1000 м
[Cb cap As op]
+0.3 -8.0 54 -4 -4 1019.2 1003.8 +2.1
15 22.04 С 1 н/о 10/4 1000 м
[Cb cap As op]
-1.6 -4.3 82 -4 -4 1019.3 1003.8
18 22.04 С 1 н/о 6/0 1000 м
[Ci sp]
+5.6 -7.0 40 +5 +5 1018.7 1002.9
21 22.04 С 1 н/о 10/0
[As trans]
-8.8 -10.3 89 -11 -11 1019.5 1003.6
00 23.04 штиль 0 50 км 10/0 2000 м
[Ac As]
-5.9 -7.8 86 -7 -6 1018.9 1003.1 -8.8 87
03 23.04 СВ 2 50 км 9/0
[Ac As]
-1.5 -3.8 84 -5 -3 1017.7 1002.8
06 23.04 ЮЗ 6-11
{11}
50 км 9/6 1000 м
[Cb calv Ac trans]
+4.0 -3.2 59 -1 0 1015.4 1000.3
09 23.04 ЮЗ 7-10
{12}
20 км 9/8 1000 м
[Cb calv Ci fib]
+5.3 -3.2 54 0 +1 1014.5 999.5
12 23.04 ЮЗ 4
{11}
20 км 10/10 1000 м
[Cb cap]
+5.0 -4.4 51 +2 +2 1013.9 998.9 +6.8
15 23.04 ЮЗ 3 н/о 10/10 1000 м
[Cb cap]
+4.8 -4.7 50 +2 +2 1014.1 999.1
18 23.04 З 1 н/о 10/10 1000 м
[Cb cap]
+4.4 -4.5 52 +4 +4 1014.2 999.1
21 23.04 С 2 н/о 10/6 1000 м
[Cb cap As op]
+1.7 -3.4 69 -1 -1 1013.6 998.4
00 24.04 СВ 1 50 км 9/8 1000 м
[Sc Ci fib]
+1.5 -4.7 63 0 +1 1012.8 997.6 +0.5 78
03 24.04 Ю 3 50 км 10/10 1000 м
[Sc]
+4.7 -5.2 49 +2 +2 1011.2 996.3
06 24.04 ЮЗ 6-11
{11}
50 км 10/9 1000 м
[Cb cap As trans]
+6.8 -5.6 41 +3 +3 1010.3 995.5
09 24.04 З 5
{14}
н/о 10/10 1000 м
[Cb cap]
+7.8 -5.6 38 +5 +5 1009.5 1004.7

 

Местоположение метеостанции Вельмо (Красноярский край, Россия): широта 61.02 долгота 93.42 высота над уровнем моря 122 м.

В архиве по умолчанию представлена погода в Вельмо за последнюю неделю. Архивные данные за месяц целиком и за предыдущие месяцы, начиная с января 2011 года, Вы можете получить, выбрав интересующий диапазон дат из раскрывающегося списка и нажав кнопку "Ввод!".


*Определитесь, кто Вы:
робот инопланетянин человек

Внимание! Время в таблицах - всемирное. Для получения местного времени необходимо прибавить поправку, которая равна 7 ч.

Смотрите также архив погоды в соседних городах и на ближайших метеорологических станциях:

Погода в Северо-Енисейском (Красноярский край, Россия) (74 км)
Погода в Кузьмовке (Эвенкия, Россия) (160 км)
Погода в Байките (Эвенкия, Россия) (173 км)
Погода в Ярцево (Красноярский край, Россия) (192 км)
Погода в Бору (Красноярский край, Россия) (193 км)
Погода в Ворогово (Красноярский край, Россия) (204 км)
Погода в Назимово (Красноярский край, Россия) (215 км)
Погода в Усть-Камо (Эвенкия, Россия) (224 км)
Погода в Бахте (Красноярский край, Россия) (283 км)
Погода в Сыме (Красноярский край, Россия) (285 км)

Пояснения к столбцам:

Ветер - указаны скорость ветра в м/с - средняя за 10 мин, порывы в срок и между сроками (в фигурных скобках) и направление, откуда дует ветер: С - северный, СВ - северо-восточный, В - восточный, ЮВ - юго-восточный, Ю - южный, ЮЗ - юго-западный, З - западный, СЗ - северо-западный.
Видимость - горизонтальная дальность видимости в метрах или километрах. При видимости от 1 до 10 км при отсутствии осадков обычно наблюдается дымка, при ухудшении видимости до 1 км и менее - туман. В сухую погоду видимость может ухудшаться дымом, пылью или мглою.
Явления - указаны атмосферные явления, наблюдавшиеся в срок или в последний час перед сроком; фигурными скобками обозначены явления, наблюдавшиеся между сроками (за 1-3 часа до срока); квадратными скобками обозначены град или гололедные отложения с указанием их диаметра в мм.
Облачность - указаны через наклонную черту общая и нижняя облачность в баллах и высота нижней границы облаков в метрах; квадратными скобками обозначены формы облаков: Ci - перистые, Cs - перисто-слоистые, Cc - перисто-кучевые, Ac - высококучевые, As - высокослоистые, Sc - слоисто-кучевые, Ns - слоисто-дождевые, Cu - кучевые, Cb - кучево-дождевые. Подробнее классификацию облаков см. в Атласе облаков (PDF).
T - Температура воздуха - температура, измеренная на высоте 2 м над землей.
Td - Температура точки росы - температура, при понижении до которой содержащийся в воздухе водяной пар достигнет насыщения.
f - Относительная влажность воздуха - влажноcть воздуха, измеренная на высоте 2 м над землей.
Te - Эффективная температура - температура, которую ощущает одетый по сезону человек в тени. Характеристика душности погоды. При расчете учитывается влияние влажности воздуха и скорости ветра на теплоощущения человека.
Tes - Эффективная температура на солнце - температура, которую ощущает человек, с поправкой на солнечный нагрев. Характеристика знойности погоды. Зависит от высоты солнца над горизонтом, облачности и скорости ветра. Ночью, в пасмурную погоду, а также при ветре 12 м/с и более поправка равна нулю.
P - Атмосферное давление - приведенное к уровню моря атмосферное давление.
Po - Атмосферное давление - измеренное на уровне метеостанции атмосферное давление.
Tmin - Минимальная температура - минимум температуры воздуха на высоте 2 м над землей.
Tmax - Максимальная температура - максимум температуры воздуха на высоте 2 м над землей.
R - Количество осадков - Количество выпавших осадков за период времени, мм. При наведении курсора мыши на число - период времени, за который выпало указанное количество осадков.
R24 - Количество осадков - Количество выпавших осадков за 24 часа, мм.
S - Снежный покров - Высота снежного покрова, см. При наведении курсора мыши на число - состояние снежного покрова и степень покрытия местности в баллах.